Regional Weather Roundup
Issued by NWS

Home | Current Version | Previous Version | Graphics & Text | Print | Product List | Glossary On
Versions: 1 2 3 4 5 6 7 8 9 10 11 12 13 14 15 16 17 18 19 20 21 22 23 24 25 26 27 28 29 30 31 32 33 34 35 36 37 38 39 40 41 42 43 44 45 46 47 48 49 50
492
ASUS45 KSLC 201010
RWRUT

UTAH REGIONAL WEATHER ROUNDUP
NATIONAL WEATHER SERVICE SALT LAKE CITY UT
300 AM MST FRI JAN 20 2017

UTZ001>011-023>025-201100-

NORTHERN UTAH

CITY           SKY/WX    TMP DP  RH WIND       PRES   REMARKS
BRIGHAM CITY     N/A     30  28  93 CALM      29.67R VSB 1
HILL AFB       FRZ DRZL  30  28  93 W6        29.64S VSB 1/4 WCI  24
LOGAN          FOG       26  25  96 E5        29.65R VSB 1   WCI  20
OGDEN          FOG       28  28 100 NW3       29.64S VSB 1/4
SALT LAKE CITY FOG       30  28  92 NW5       29.66R VSB 1/4 WCI  25
TOOELE VALLEY  FOG       30  30 100 E3        29.67S VSB 1/2
WENDOVER       CLOUDY    25  21  86 CALM      29.66F VSB 1/4
HEBER CITY     LGT SNOW  28  28 100 CALM      29.59S
WEST JORDAN    CLOUDY    31  31 100 CALM      29.65S VSB 1/4

$$

UTZ011>015-024>027-201100-

CENTRAL/NORTHEAST UTAH

CITY           SKY/WX    TMP DP  RH WIND       PRES   REMARKS
PROVO AIRPORT  FOG      N/A N/A N/A W5        29.65R VSB 1/2
MOAB/CANYONLAN LGT SNOW  31  31 100 NW6       29.61S FOG     WCI  25
DELTA          CLOUDY    32  32 100 S3        29.65F VSB 1/4
PRICE          FOG       21  21 100 CALM      29.59S VSB 1/4
RICHFIELD      MOCLDY    30  32 100 SW5       29.65F WCI  25
ROOSEVELT      CLOUDY    12   9  85 CALM      29.69R FOG
VERNAL         LGT SNOW  17  13  84 CALM      29.65F FOG

$$

UTZ013>016-019>022-027-201100-

SOUTHERN UTAH

CITY           SKY/WX    TMP DP  RH WIND       PRES   REMARKS
BRYCE CANYON   CLOUDY    24  21  88 W6        29.63S WCI  17
CEDAR CITY     MOCLDY    24  23  96 S6        29.67S WCI  17
MILFORD        CLOUDY    32  31  96 S10       29.65F WCI  24
ST GEORGE      CLOUDY    39  34  81 CALM      29.75F
HANKSVILLE     CLOUDY    32  32 100 MISG      29.66R
KANAB          MOCLDY    32  32 100 MISG      29.76S
BLANDING       CLOUDY    30  30 100 S7        29.72S VSB 1   WCI  23

$$

REGIONAL REPORTS     COLORADO/ARIZONA

CITY           SKY/WX    TMP DP  RH WIND       PRES   REMARKS
CRAIG, CO      LGT SNOW  27  25  92 CALM      29.58F FOG
GRAND JUNCTION FOG       31  31 100 W3        29.60F VSB 1
RIFLE, CO      LGT SNOW  30  30 100 CALM      29.59F FOG
MONTROSE, CO   CLOUDY    30  30 100 SW3       29.60F
CORTEZ, CO     CLOUDY    32  27  81 SW14      29.67S WCI  22
COLORADO CITY  CLOUDY    32  32 100 E3        29.74F
PAGE, AZ       PTCLDY    37  30  75 CALM      29.68F
GRAND CANYON   LGT SNOW  28  28 100 SW12      29.73F FOG     WCI  18
KINGMAN, AZ    MOCLDY    40  35  83 S6        29.76S
FLAGSTAFF, AZ  LGT SNOW  28  26  92 SW12      29.73F FOG     WCI  18

$$

REGIONAL REPORTS    NEVADA/IDAHO/WYOMING

CITY           SKY/WX    TMP DP  RH WIND       PRES   REMARKS
LAS VEGAS, NV  MOCLDY    49  33  54 S7        29.69R
ELY, NY        PTCLDY    11   9  92 S10       29.64F WCI  -3
ELKO, NV       CLOUDY    20  16  84 E3        29.60F
POCATELLO, ID  CLOUDY    32  27  81 S6        29.62S WCI  26
BURLEY, ID     FLURRIES  32  28  85 S9        29.60F WCI  24
FORT BRIDGER,  CLOUDY    26  26 100 W9        29.61S WCI  17
EVANSTON, WY   CLOUDY    24  20  84 SW9       29.57F FOG     WCI  14
ROCK SPRINGS,  CLOUDY    22  20  92 W14       29.57S WCI   9

$$




USA.gov is the U.S. government's official web portal to all federal, state and local government web resources and services.